Overview Statistics Trail Chart Weather Telemetry Raw packets
 

This is the latest recevied weather packets stored in our database for station/object KC5DAQ-26. If no packets are shown the sender has not sent any weather packets the latest 10 day(s).

<< 466 467 468 469 470 471 472 >>
Time Temp. Humidity Pressure Rain* Wind** Luminosity Snow
1787941317 34.44° C 58% 1019.8 hPa 0 mm - 943 W/m² -
1787941257 34.44° C 61% 1019.9 hPa 0 mm - 948 W/m² -
1787941197 34.44° C 62% 1019.9 hPa 0 mm - 951 W/m² -
1787941136 34.44° C 58% 1019.9 hPa 0 mm - 949 W/m² -
1787941078 34.44° C 61% 1020 hPa 0 mm - 950 W/m² -
1787941017 34.44° C 58% 1019.8 hPa 0 mm - 946 W/m² -
1787940956 34.44° C 58% 1019.9 hPa 0 mm - 950 W/m² -
1787940897 34.44° C 59% 1020 hPa 0 mm - 951 W/m² -
1787940837 34.44° C 59% 1020 hPa 0 mm - 948 W/m² -
1787940777 34.44° C 59% 1019.9 hPa 0 mm - 943 W/m² -
1787940716 34.44° C 59% 1020 hPa 0 mm - 930 W/m² -
1787940658 34.44° C 60% 1020 hPa 0 mm - 934 W/m² -
1787940596 34.44° C 63% 1020 hPa 0 mm - 934 W/m² -
1787940538 34.44° C 61% 1020 hPa 0 mm - 941 W/m² -
1787940477 34.44° C 62% 1020 hPa 0 mm - 951 W/m² -
1787940416 34.44° C 66% 1020.1 hPa 0 mm - 955 W/m² -
1787940356 34.44° C 62% 1020.1 hPa 0 mm - 957 W/m² -
1787940296 33.89° C 62% 1020 hPa 0 mm - 953 W/m² -
1787940238 33.89° C 68% 1020 hPa 0 mm - 950 W/m² -
1787940176 33.89° C 63% 1020 hPa 0 mm - 942 W/m² -
1787940118 33.89° C 62% 1020.1 hPa 0 mm - 935 W/m² -
1787940058 33.89° C 61% 1020.1 hPa 0 mm - 923 W/m² -
1787939997 33.89° C 61% 1020.1 hPa 0 mm - 923 W/m² -
1787939938 33.89° C 61% 1020.1 hPa 0 mm - 923 W/m² -
1787939878 33.89° C 61% 1020 hPa 0 mm - 923 W/m² -

* Rain latest hour (hover to see other rain measurements)
** Current wind speed in m/s (hover to see current wind gust speed)